When you browse on this site, cookies collect data to enhance your experience and personalize the content and advertising you see.
Visit our Privacy Policy to learn more. By continuing to use the site, you agree to this use of cookies and data.
  • In Latvia
  • List of Countries
  • For 7 days
  • Water Temperature
  • Satellite Maps
  • Weather Map
  • Weather Widgets
  • user-avatar
    Login

    Hourly Weather Kumasi

    Today, 23 April, Tuesday

    Time Temperature Precipitation Wind Pressure Humidity
    00:00 +30°C° 0 mm 2 mps 754 mmHg 78%
    01:00 +30°C° 0 mm 2 mps 754 mmHg 79%
    02:00 +30°C° 0 mm 2 mps 754 mmHg 80%
    03:00 +29°C° 0 mm 1 mps 754 mmHg 81%
    04:00 +29°C° 0 mm 1 mps 754 mmHg 82%
    05:00 +29°C° 0 mm 2 mps 754 mmHg 82%
    06:00 +29°C° 0 mm 2 mps 754 mmHg 83%
    07:00 +31°C° 0 mm 2 mps 754 mmHg 73%
    08:00 +34°C° 0 mm 2 mps 755 mmHg 64%
    09:00 +36°C° 0 mm 3 mps 755 mmHg 54%
    10:00 +37°C° 0 mm 3 mps 755 mmHg 50%
    11:00 +39°C° 0 mm 3 mps 754 mmHg 45%
    12:00 +41°C° 0 mm 4 mps 754 mmHg 40%
    13:00 +40°C° 0 mm 4 mps 753 mmHg 42%
    14:00 +40°C° 0 mm 4 mps 753 mmHg 44%
    15:00 +39°C° 0 mm 5 mps 752 mmHg 46%
    16:00 +37°C° 0.4 mm 5 mps 753 mmHg 53%
    17:00 +35°C° 0.4 mm 4 mps 753 mmHg 60%
    18:00 +33°C° 0.4 mm 4 mps 753 mmHg 67%
    19:00 +33°C° 0 mm 4 mps 753 mmHg 68%
    20:00 +32°C° 0 mm 5 mps 754 mmHg 70%
    21:00 +32°C° 0 mm 5 mps 754 mmHg 72%
    22:00 +32°C° 0 mm 4 mps 754 mmHg 74%
    23:00 +30°C° 0 mm 3 mps 755 mmHg 75%

    Tomorrow, 24 April, Wednesday

    Time Temperature Precipitation Wind Pressure Humidity
    00:00 +30°C° 0 mm 2 mps 755 mmHg 77%
    01:00 +30°C° 0.8 mm 2 mps 755 mmHg 79%
    02:00 +29°C° 0.8 mm 2 mps 754 mmHg 82%
    03:00 +29°C° 0.8 mm 2 mps 754 mmHg 85%
    04:00 +29°C° 0.1 mm 2 mps 754 mmHg 85%
    05:00 +29°C° 0.1 mm 2 mps 754 mmHg 84%
    06:00 +29°C° 0.1 mm 2 mps 754 mmHg 84%
    07:00 +30°C° 0 mm 2 mps 755 mmHg 78%
    08:00 +31°C° 0 mm 2 mps 756 mmHg 71%
    09:00 +34°C° 0 mm 2 mps 756 mmHg 64%
    10:00 +36°C° 0 mm 2 mps 756 mmHg 57%
    11:00 +37°C° 0 mm 3 mps 756 mmHg 50%
    12:00 +39°C° 0 mm 3 mps 756 mmHg 43%
    13:00 +40°C° 0 mm 4 mps 755 mmHg 44%
    14:00 +40°C° 0 mm 4 mps 754 mmHg 45%
    15:00 +38°C° 0 mm 4 mps 753 mmHg 46%
    16:00 +37°C° 0.3 mm 4 mps 753 mmHg 52%
    17:00 +35°C° 0.3 mm 4 mps 754 mmHg 59%
    18:00 +33°C° 0.3 mm 3 mps 754 mmHg 65%
    19:00 +33°C° 0 mm 4 mps 754 mmHg 67%
    20:00 +32°C° 0 mm 4 mps 755 mmHg 69%
    21:00 +32°C° 0 mm 4 mps 755 mmHg 72%
    22:00 +31°C° 0 mm 3 mps 756 mmHg 73%
    23:00 +31°C° 0 mm 3 mps 756 mmHg 74%

    Day after tomorrow, 25 April, Thursday

    Time Temperature Precipitation Wind Pressure Humidity
    00:00 +30°C° 0 mm 3 mps 756 mmHg 75%
    01:00 +30°C° 0 mm 3 mps 756 mmHg 76%
    02:00 +30°C° 0 mm 3 mps 755 mmHg 77%
    03:00 +30°C° 0 mm 2 mps 755 mmHg 78%
    04:00 +30°C° 0 mm 2 mps 755 mmHg 79%
    05:00 +30°C° 0 mm 2 mps 755 mmHg 80%
    06:00 +29°C° 0 mm 2 mps 756 mmHg 81%
    07:00 +31°C° 0 mm 2 mps 756 mmHg 73%
    08:00 +34°C° 0 mm 2 mps 756 mmHg 64%
    09:00 +36°C° 0 mm 3 mps 757 mmHg 56%
    10:00 +37°C° 0 mm 3 mps 756 mmHg 51%
    11:00 +39°C° 0 mm 3 mps 756 mmHg 46%
    12:00 +41°C° 0 mm 4 mps 755 mmHg 41%
    13:00 +40°C° 0 mm 4 mps 754 mmHg 43%
    14:00 +40°C° 0 mm 4 mps 754 mmHg 44%
    15:00 +39°C° 0 mm 5 mps 753 mmHg 46%
    16:00 +37°C° 0.3 mm 4 mps 753 mmHg 53%
    17:00 +35°C° 0.3 mm 4 mps 753 mmHg 60%
    18:00 +33°C° 0.3 mm 4 mps 753 mmHg 67%
    19:00 +33°C° 0.1 mm 4 mps 754 mmHg 70%
    20:00 +32°C° 0.1 mm 4 mps 755 mmHg 74%
    21:00 +30°C° 0.1 mm 4 mps 756 mmHg 77%
    22:00 +30°C° 0 mm 3 mps 755 mmHg 79%
    23:00 +30°C° 0 mm 3 mps 755 mmHg 80%

    26 April, Friday

    Time Temperature Precipitation Wind Pressure Humidity
    00:00 +30°C° 0 mm 2 mps 755 mmHg 81%
    01:00 +30°C° 0 mm 2 mps 755 mmHg 82%
    02:00 +30°C° 0 mm 3 mps 754 mmHg 82%
    03:00 +29°C° 0 mm 3 mps 753 mmHg 83%
    04:00 +29°C° 0 mm 3 mps 754 mmHg 83%
    05:00 +29°C° 0 mm 3 mps 754 mmHg 84%
    06:00 +29°C° 0 mm 2 mps 754 mmHg 85%
    07:00 +31°C° 0 mm 3 mps 755 mmHg 76%
    08:00 +34°C° 0 mm 3 mps 756 mmHg 68%
    09:00 +35°C° 0 mm 4 mps 756 mmHg 59%
    10:00 +37°C° 0 mm 4 mps 756 mmHg 54%
    11:00 +38°C° 0 mm 4 mps 755 mmHg 49%
    12:00 +41°C° 0 mm 4 mps 755 mmHg 44%
    13:00 +40°C° 0 mm 4 mps 754 mmHg 45%
    14:00 +40°C° 0 mm 5 mps 753 mmHg 46%
    15:00 +39°C° 0 mm 5 mps 752 mmHg 48%
    16:00 +37°C° 0 mm 5 mps 752 mmHg 53%
    17:00 +35°C° 0 mm 5 mps 753 mmHg 58%
    18:00 +34°C° 0 mm 5 mps 753 mmHg 64%
    19:00 +33°C° 0 mm 5 mps 754 mmHg 67%
    20:00 +32°C° 0 mm 4 mps 755 mmHg 71%
    21:00 +32°C° 0 mm 4 mps 755 mmHg 75%
    22:00 +32°C° 0 mm 4 mps 755 mmHg 75%
    23:00 +32°C° 0 mm 4 mps 755 mmHg 76%

    27 April, Saturday

    Time Temperature Precipitation Wind Pressure Humidity
    00:00 +30°C° 0 mm 4 mps 755 mmHg 76%
    01:00 +30°C° 0 mm 4 mps 754 mmHg 76%
    02:00 +30°C° 0 mm 4 mps 753 mmHg 76%
    03:00 +30°C° 0 mm 4 mps 753 mmHg 76%
    04:00 +30°C° 0 mm 3 mps 753 mmHg 77%
    05:00 +30°C° 0 mm 3 mps 754 mmHg 78%
    06:00 +29°C° 0 mm 3 mps 754 mmHg 79%
    07:00 +31°C° 0 mm 3 mps 754 mmHg 71%
    08:00 +34°C° 0 mm 4 mps 755 mmHg 64%
    09:00 +36°C° 0 mm 5 mps 755 mmHg 57%
    10:00 +36°C° 0 mm 5 mps 755 mmHg 54%
    11:00 +37°C° 0 mm 5 mps 754 mmHg 51%
    12:00 +39°C° 0 mm 5 mps 754 mmHg 48%
    13:00 +39°C° 0.1 mm 5 mps 753 mmHg 49%
    14:00 +37°C° 0.1 mm 5 mps 753 mmHg 51%
    15:00 +37°C° 0.1 mm 5 mps 752 mmHg 52%
    16:00 +36°C° 0.1 mm 5 mps 753 mmHg 56%
    17:00 +35°C° 0.1 mm 5 mps 753 mmHg 60%
    18:00 +34°C° 0.1 mm 5 mps 753 mmHg 64%
    19:00 +33°C° 0 mm 4 mps 754 mmHg 68%
    20:00 +32°C° 0 mm 4 mps 755 mmHg 72%
    21:00 +32°C° 0 mm 4 mps 755 mmHg 76%
    22:00 +32°C° 0 mm 4 mps 755 mmHg 77%
    23:00 +30°C° 0 mm 4 mps 755 mmHg 78%

    28 April, Sunday

    Time Temperature Precipitation Wind Pressure Humidity
    00:00 +30°C° 0 mm 3 mps 755 mmHg 80%
    01:00 +30°C° 0 mm 3 mps 754 mmHg 81%
    02:00 +30°C° 0 mm 3 mps 754 mmHg 82%
    03:00 +29°C° 0 mm 3 mps 754 mmHg 83%
    04:00 +29°C° 0 mm 3 mps 754 mmHg 83%
    05:00 +29°C° 0 mm 3 mps 754 mmHg 83%
    06:00 +29°C° 0 mm 3 mps 754 mmHg 83%
    07:00 +31°C° 0 mm 3 mps 755 mmHg 75%
    08:00 +34°C° 0 mm 4 mps 755 mmHg 66%
    09:00 +36°C° 0 mm 4 mps 755 mmHg 57%
    10:00 +37°C° 0 mm 4 mps 755 mmHg 53%
    11:00 +39°C° 0 mm 5 mps 754 mmHg 48%
    12:00 +41°C° 0 mm 5 mps 754 mmHg 43%
    13:00 +40°C° 0 mm 5 mps 753 mmHg 44%
    14:00 +40°C° 0 mm 5 mps 753 mmHg 45%
    15:00 +39°C° 0 mm 6 mps 752 mmHg 46%
    16:00 +38°C° 0 mm 6 mps 753 mmHg 53%
    17:00 +35°C° 0 mm 5 mps 753 mmHg 60%
    18:00 +33°C° 0 mm 5 mps 753 mmHg 67%
    19:00 +33°C° 0 mm 5 mps 754 mmHg 70%
    20:00 +32°C° 0 mm 4 mps 755 mmHg 74%
    21:00 +32°C° 0 mm 4 mps 755 mmHg 77%
    22:00 +32°C° 0 mm 4 mps 755 mmHg 78%
    23:00 +30°C° 0 mm 4 mps 755 mmHg 79%
    Show more